Hourly Weather Al Hudaydah

Today, 10 May, Monday

Time Temperature Precipitation Wind Pressure Humidity
00:00 +35°C° 0 mm 2 mps 750 mmHg 46%
01:00 +35°C° 0 mm 2 mps 750 mmHg 49%
02:00 +34°C° 0 mm 2 mps 750 mmHg 51%
03:00 +34°C° 0 mm 2 mps 749 mmHg 51%
04:00 +33°C° 0 mm 1 mps 750 mmHg 52%
05:00 +33°C° 0 mm 1 mps 750 mmHg 52%
06:00 +32°C° 0 mm 1 mps 751 mmHg 52%
07:00 +34°C° 0 mm 1 mps 751 mmHg 48%
08:00 +35°C° 0 mm 1 mps 751 mmHg 44%
09:00 +34°C° 0 mm 0 mps 751 mmHg 41%
10:00 +38°C° 0 mm 2 mps 751 mmHg 38%
11:00 +39°C° 0 mm 3 mps 751 mmHg 34%
12:00 +42°C° 0 mm 4 mps 750 mmHg 31%
13:00 +41°C° 0 mm 5 mps 750 mmHg 31%
14:00 +41°C° 0 mm 5 mps 749 mmHg 31%
15:00 +41°C° 0 mm 5 mps 749 mmHg 32%
16:00 +40°C° 0 mm 4 mps 749 mmHg 34%
17:00 +38°C° 0 mm 3 mps 749 mmHg 36%
18:00 +37°C° 0 mm 3 mps 750 mmHg 38%
19:00 +37°C° 0 mm 2 mps 750 mmHg 39%
20:00 +37°C° 0 mm 2 mps 750 mmHg 40%
21:00 +36°C° 0 mm 2 mps 750 mmHg 41%
22:00 +36°C° 0 mm 2 mps 750 mmHg 41%
23:00 +36°C° 0 mm 2 mps 750 mmHg 42%

Tomorrow, 11 May, Tuesday

Time Temperature Precipitation Wind Pressure Humidity
00:00 +35°C° 0 mm 2 mps 750 mmHg 42%
01:00 +34°C° 0 mm 1 mps 750 mmHg 44%
02:00 +34°C° 0 mm 1 mps 750 mmHg 46%
03:00 +33°C° 0 mm 1 mps 750 mmHg 47%
04:00 +33°C° 0 mm 1 mps 750 mmHg 48%
05:00 +31°C° 0 mm 0 mps 750 mmHg 49%
06:00 +31°C° 0 mm 0 mps 751 mmHg 50%
07:00 +34°C° 0 mm 1 mps 751 mmHg 47%
08:00 +36°C° 0 mm 2 mps 751 mmHg 44%
09:00 +37°C° 0 mm 3 mps 751 mmHg 41%
10:00 +38°C° 0 mm 3 mps 751 mmHg 38%
11:00 +39°C° 0 mm 3 mps 751 mmHg 36%
12:00 +41°C° 0 mm 4 mps 750 mmHg 33%
13:00 +41°C° 0 mm 4 mps 750 mmHg 33%
14:00 +42°C° 0 mm 5 mps 750 mmHg 33%
15:00 +42°C° 0 mm 5 mps 749 mmHg 32%
16:00 +41°C° 0 mm 4 mps 749 mmHg 35%
17:00 +38°C° 0 mm 4 mps 749 mmHg 38%
18:00 +37°C° 0 mm 3 mps 750 mmHg 42%
19:00 +37°C° 0 mm 2 mps 750 mmHg 43%
20:00 +37°C° 0 mm 2 mps 750 mmHg 44%
21:00 +35°C° 0 mm 1 mps 751 mmHg 45%
22:00 +35°C° 0 mm 1 mps 750 mmHg 46%
23:00 +35°C° 0 mm 1 mps 750 mmHg 46%

Day after tomorrow, 12 May, Wednesday

Time Temperature Precipitation Wind Pressure Humidity
00:00 +35°C° 0 mm 1 mps 750 mmHg 47%
01:00 +34°C° 0 mm 1 mps 750 mmHg 49%
02:00 +34°C° 0 mm 1 mps 749 mmHg 51%
03:00 +34°C° 0 mm 2 mps 749 mmHg 53%
04:00 +33°C° 0 mm 1 mps 749 mmHg 54%
05:00 +33°C° 0 mm 1 mps 750 mmHg 54%
06:00 +32°C° 0 mm 1 mps 750 mmHg 55%
07:00 +34°C° 0 mm 1 mps 750 mmHg 50%
08:00 +35°C° 0 mm 1 mps 750 mmHg 44%
09:00 +36°C° 0 mm 1 mps 751 mmHg 39%
10:00 +39°C° 0 mm 2 mps 750 mmHg 34%
11:00 +40°C° 0 mm 3 mps 750 mmHg 30%
12:00 +42°C° 0 mm 3 mps 749 mmHg 26%
13:00 +42°C° 0 mm 4 mps 749 mmHg 26%
14:00 +42°C° 0 mm 4 mps 748 mmHg 26%
15:00 +42°C° 0 mm 5 mps 748 mmHg 26%
16:00 +41°C° 0 mm 4 mps 748 mmHg 27%
17:00 +40°C° 0 mm 3 mps 748 mmHg 29%
18:00 +39°C° 0 mm 2 mps 748 mmHg 30%
19:00 +39°C° 0 mm 3 mps 749 mmHg 31%
20:00 +38°C° 0 mm 3 mps 749 mmHg 31%
21:00 +38°C° 0 mm 4 mps 749 mmHg 32%
22:00 +38°C° 0 mm 3 mps 749 mmHg 33%
23:00 +37°C° 0 mm 3 mps 749 mmHg 35%

13 May, Thursday

Time Temperature Precipitation Wind Pressure Humidity
00:00 +37°C° 0 mm 2 mps 748 mmHg 37%
01:00 +36°C° 0 mm 2 mps 748 mmHg 39%
02:00 +36°C° 0 mm 2 mps 748 mmHg 41%
03:00 +35°C° 0 mm 3 mps 748 mmHg 42%
04:00 +35°C° 0 mm 2 mps 748 mmHg 46%
05:00 +33°C° 0 mm 1 mps 749 mmHg 49%
06:00 +33°C° 0 mm 1 mps 749 mmHg 52%
07:00 +34°C° 0 mm 1 mps 749 mmHg 46%
08:00 +37°C° 0 mm 2 mps 749 mmHg 40%
09:00 +38°C° 0 mm 2 mps 749 mmHg 34%
10:00 +40°C° 0 mm 3 mps 749 mmHg 31%
11:00 +42°C° 0 mm 3 mps 748 mmHg 29%
12:00 +43°C° 0 mm 4 mps 748 mmHg 26%
13:00 +43°C° 0 mm 5 mps 748 mmHg 27%
14:00 +42°C° 0 mm 6 mps 747 mmHg 28%
15:00 +43°C° 0 mm 7 mps 747 mmHg 28%
16:00 +41°C° 0 mm 7 mps 747 mmHg 28%
17:00 +41°C° 0 mm 7 mps 747 mmHg 27%
18:00 +40°C° 0 mm 7 mps 747 mmHg 27%
19:00 +40°C° 0 mm 6 mps 748 mmHg 29%
20:00 +39°C° 0 mm 6 mps 748 mmHg 31%
21:00 +37°C° 0 mm 5 mps 748 mmHg 34%
22:00 +37°C° 0 mm 5 mps 748 mmHg 34%
23:00 +37°C° 0 mm 4 mps 748 mmHg 35%

14 May, Friday

Time Temperature Precipitation Wind Pressure Humidity
00:00 +37°C° 0 mm 3 mps 748 mmHg 35%
01:00 +36°C° 0 mm 3 mps 748 mmHg 39%
02:00 +35°C° 0 mm 4 mps 748 mmHg 44%
03:00 +35°C° 0 mm 4 mps 747 mmHg 48%
04:00 +34°C° 0 mm 3 mps 748 mmHg 51%
05:00 +34°C° 0 mm 3 mps 748 mmHg 54%
06:00 +34°C° 0 mm 2 mps 748 mmHg 58%
07:00 +35°C° 0 mm 3 mps 748 mmHg 52%
08:00 +36°C° 0 mm 4 mps 749 mmHg 47%
09:00 +38°C° 0 mm 4 mps 749 mmHg 42%
10:00 +40°C° 0 mm 5 mps 749 mmHg 38%
11:00 +41°C° 0 mm 5 mps 749 mmHg 35%
12:00 +42°C° 0 mm 5 mps 748 mmHg 31%
13:00 +42°C° 0 mm 6 mps 748 mmHg 33%
14:00 +41°C° 0 mm 7 mps 748 mmHg 35%
15:00 +41°C° 0 mm 7 mps 747 mmHg 37%
16:00 +40°C° 0 mm 7 mps 747 mmHg 39%
17:00 +40°C° 0 mm 7 mps 747 mmHg 41%
18:00 +39°C° 0 mm 7 mps 747 mmHg 43%
19:00 +38°C° 0 mm 6 mps 747 mmHg 47%
20:00 +36°C° 0 mm 5 mps 747 mmHg 51%
21:00 +36°C° 0 mm 5 mps 748 mmHg 56%
22:00 +35°C° 0 mm 4 mps 748 mmHg 58%
23:00 +35°C° 0 mm 3 mps 747 mmHg 61%

15 May, Saturday

Time Temperature Precipitation Wind Pressure Humidity
00:00 +34°C° 0 mm 3 mps 747 mmHg 63%
01:00 +34°C° 0 mm 3 mps 747 mmHg 65%
02:00 +34°C° 0 mm 3 mps 747 mmHg 68%
03:00 +33°C° 0 mm 3 mps 747 mmHg 70%
04:00 +33°C° 0 mm 3 mps 747 mmHg 71%
05:00 +31°C° 0 mm 2 mps 748 mmHg 73%
06:00 +31°C° 0 mm 2 mps 748 mmHg 74%
07:00 +32°C° 0 mm 2 mps 748 mmHg 68%
08:00 +34°C° 0 mm 2 mps 748 mmHg 63%
09:00 +34°C° 0 mm 1 mps 749 mmHg 57%
10:00 +37°C° 0 mm 3 mps 748 mmHg 51%
11:00 +40°C° 0 mm 4 mps 748 mmHg 45%
12:00 +41°C° 0 mm 5 mps 747 mmHg 39%
13:00 +41°C° 0 mm 6 mps 747 mmHg 40%
14:00 +41°C° 0 mm 6 mps 747 mmHg 40%
15:00 +41°C° 0 mm 6 mps 746 mmHg 41%
16:00 +40°C° 0 mm 6 mps 746 mmHg 44%
17:00 +39°C° 0 mm 6 mps 747 mmHg 47%
18:00 +38°C° 0 mm 6 mps 747 mmHg 50%
19:00 +37°C° 0 mm 5 mps 747 mmHg 54%
20:00 +36°C° 0 mm 5 mps 747 mmHg 58%
21:00 +35°C° 0 mm 4 mps 748 mmHg 61%
22:00 +35°C° 0 mm 3 mps 747 mmHg 63%
23:00 +35°C° 0 mm 2 mps 747 mmHg 64%
Show more